Time,TemperatureF,DewpointF,PressureIn,WindDirection,WindDirectionDegrees,WindSpeedMPH,WindSpeedGustMPH,Humidity,HourlyPrecipIn,Conditions,Clouds,dailyrainin,SoftwareType,DateUTC
2013-03-14 00:00:00,34.3,8.9,29.83,WNW,283,0.0,0.0,34,0.00,,---,0.00,VWS V14.01,2013-03-14 04:00:00,
2013-03-14 00:05:00,34.2,8.7,29.83,WNW,283,0.0,0.0,34,0.00,,---,0.00,VWS V14.01,2013-03-14 04:05:00,
2013-03-14 00:10:00,34.2,9.4,29.83,WNW,283,0.0,0.0,35,0.00,,---,0.00,VWS V14.01,2013-03-14 04:10:00,
2013-03-14 00:15:00,34.0,9.2,29.83,WNW,287,2.7,2.7,35,0.00,,---,0.00,VWS V14.01,2013-03-14 04:15:00,
2013-03-14 00:20:00,34.0,9.2,29.83,WNW,290,4.0,6.9,35,0.00,,---,0.00,VWS V14.01,2013-03-14 04:20:00,
2013-03-14 00:25:00,34.2,9.4,29.83,WNW,297,0.0,0.0,35,0.00,,---,0.00,VWS V14.01,2013-03-14 04:25:00,
2013-03-14 00:30:00,34.0,9.2,29.83,WNW,297,2.7,3.1,35,0.00,,---,0.00,VWS V14.01,2013-03-14 04:30:00,
2013-03-14 00:35:00,34.0,9.2,29.83,WNW,291,4.0,5.4,35,0.00,,---,0.00,VWS V14.01,2013-03-14 04:35:00,
2013-03-14 00:40:00,34.0,9.9,29.83,WNW,291,0.0,0.0,36,0.00,,---,0.00,VWS V14.01,2013-03-14 04:40:00,
2013-03-14 00:45:00,33.8,9.7,29.83,WNW,289,0.0,5.8,36,0.00,,---,0.00,VWS V14.01,2013-03-14 04:45:00,
2013-03-14 00:50:00,33.6,10.1,29.83,WNW,292,0.0,2.7,37,0.00,,---,0.00,VWS V14.01,2013-03-14 04:50:00,
2013-03-14 00:55:00,33.6,10.1,29.83,WNW,282,2.7,4.5,37,0.00,,---,0.00,VWS V14.01,2013-03-14 04:55:00,
2013-03-14 01:00:00,33.6,11.3,29.83,West,278,0.0,3.1,39,0.00,,---,0.00,VWS V14.01,2013-03-14 05:00:00,
2013-03-14 01:05:00,33.8,12.1,29.83,WSW,242,3.1,3.6,40,0.00,,---,0.00,VWS V14.01,2013-03-14 05:05:00,
2013-03-14 01:10:00,33.8,12.1,29.83,WNW,296,2.7,3.1,40,0.00,,---,0.00,VWS V14.01,2013-03-14 05:10:00,
2013-03-14 01:15:00,33.8,12.1,29.83,WNW,295,3.1,3.6,40,0.00,,---,0.00,VWS V14.01,2013-03-14 05:15:00,
2013-03-14 01:20:00,33.8,12.1,29.83,WNW,282,2.7,6.7,40,0.00,,---,0.00,VWS V14.01,2013-03-14 05:20:00,
2013-03-14 01:25:00,33.8,12.1,29.83,SW,225,4.0,4.9,40,0.00,,---,0.00,VWS V14.01,2013-03-14 05:25:00,
2013-03-14 01:30:00,33.8,12.6,29.83,WSW,255,2.7,4.5,41,0.00,,---,0.00,VWS V14.01,2013-03-14 05:30:00,
2013-03-14 01:35:00,33.8,12.6,29.83,West,274,3.1,4.0,41,0.00,,---,0.00,VWS V14.01,2013-03-14 05:35:00,
2013-03-14 01:40:00,33.8,12.6,29.83,WSW,246,3.1,4.9,41,0.00,,---,0.00,VWS V14.01,2013-03-14 05:40:00,
2013-03-14 01:45:00,33.8,12.6,29.83,NW,305,0.0,4.9,41,0.00,,---,0.00,VWS V14.01,2013-03-14 05:45:00,
2013-03-14 01:50:00,33.8,12.6,29.83,SW,215,7.4,7.8,41,0.00,,---,0.00,VWS V14.01,2013-03-14 05:50:00,
2013-03-14 01:55:00,34.0,13.3,29.83,West,274,6.9,9.6,42,0.00,,---,0.00,VWS V14.01,2013-03-14 05:55:00,
2013-03-14 02:00:00,34.2,13.5,29.83,WNW,287,10.1,12.1,42,0.00,,---,0.00,VWS V14.01,2013-03-14 06:00:00,
2013-03-14 02:05:00,34.2,13.5,29.83,WNW,290,9.2,21.5,42,0.00,,---,0.00,VWS V14.01,2013-03-14 06:05:00,
2013-03-14 02:10:00,34.2,12.9,29.83,SSW,207,6.3,14.3,41,0.00,,---,0.00,VWS V14.01,2013-03-14 06:10:00,
2013-03-14 02:15:00,34.0,12.8,29.83,West,259,14.8,14.8,41,0.00,,---,0.00,VWS V14.01,2013-03-14 06:15:00,
2013-03-14 02:20:00,33.4,12.3,29.83,WNW,302,5.8,17.2,41,0.00,,---,0.00,VWS V14.01,2013-03-14 06:20:00,
2013-03-14 02:25:00,33.3,11.6,29.83,WNW,301,7.4,15.2,40,0.00,,---,0.00,VWS V14.01,2013-03-14 06:25:00,
2013-03-14 02:31:00,32.9,11.2,29.83,WNW,296,9.2,14.3,40,0.00,,---,0.00,VWS V14.01,2013-03-14 06:31:00,
2013-03-14 02:35:00,32.7,11.1,29.83,NW,314,0.0,9.6,40,0.00,,---,0.00,VWS V14.01,2013-03-14 06:35:00,
2013-03-14 02:40:00,32.7,10.5,29.83,WNW,287,11.0,11.0,39,0.00,,---,0.00,VWS V14.01,2013-03-14 06:40:00,
2013-03-14 02:46:00,32.7,9.9,29.83,West,267,8.3,14.8,38,0.00,,---,0.00,VWS V14.01,2013-03-14 06:46:00,
2013-03-14 02:51:00,32.5,8.6,29.83,WNW,286,3.1,6.3,36,0.00,,---,0.00,VWS V14.01,2013-03-14 06:51:00,
2013-03-14 02:56:00,32.5,7.9,29.83,WSW,253,4.0,8.7,35,0.00,,---,0.00,VWS V14.01,2013-03-14 06:56:00,
2013-03-14 03:01:00,32.7,8.1,29.83,West,279,6.7,6.9,35,0.00,,---,0.00,VWS V14.01,2013-03-14 07:01:00,
2013-03-14 03:06:00,32.7,8.1,29.83,WNW,295,0.0,0.0,35,0.00,,---,0.00,VWS V14.01,2013-03-14 07:06:00,
2013-03-14 03:11:00,32.5,7.3,29.83,West,270,4.5,8.7,34,0.00,,---,0.00,VWS V14.01,2013-03-14 07:11:00,
2013-03-14 03:16:00,32.5,7.3,29.83,West,279,6.3,6.3,34,0.00,,---,0.00,VWS V14.01,2013-03-14 07:16:00,
2013-03-14 03:21:00,32.5,7.3,29.83,West,279,0.0,6.7,34,0.00,,---,0.00,VWS V14.01,2013-03-14 07:21:00,
2013-03-14 03:26:00,32.5,6.6,29.83,NW,311,4.5,11.0,33,0.00,,---,0.00,VWS V14.01,2013-03-14 07:26:00,
2013-03-14 03:31:00,32.5,6.6,29.83,NW,318,7.8,9.6,33,0.00,,---,0.00,VWS V14.01,2013-03-14 07:31:00,
2013-03-14 03:36:00,32.5,6.6,29.83,WNW,287,5.4,7.4,33,0.00,,---,0.00,VWS V14.01,2013-03-14 07:36:00,
2013-03-14 03:41:00,32.5,6.0,29.83,NW,308,4.0,11.0,32,0.00,,---,0.00,VWS V14.01,2013-03-14 07:41:00,
2013-03-14 03:46:00,32.5,6.0,29.83,WNW,293,0.0,6.3,32,0.00,,---,0.00,VWS V14.01,2013-03-14 07:46:00,
2013-03-14 03:51:00,32.5,6.0,29.83,WNW,287,8.7,9.6,32,0.00,,---,0.00,VWS V14.01,2013-03-14 07:51:00,
2013-03-14 03:56:00,32.5,6.0,29.83,West,270,5.8,7.4,32,0.00,,---,0.00,VWS V14.01,2013-03-14 07:56:00,
2013-03-14 04:01:00,32.4,5.1,29.83,WNW,295,4.9,9.2,31,0.00,,---,0.00,VWS V14.01,2013-03-14 08:01:00,
2013-03-14 04:06:00,32.4,5.1,29.83,NW,323,4.5,10.5,31,0.00,,---,0.00,VWS V14.01,2013-03-14 08:06:00,
2013-03-14 04:11:00,32.2,5.0,29.83,WNW,301,5.8,14.3,31,0.00,,---,0.00,VWS V14.01,2013-03-14 08:11:00,
2013-03-14 04:16:00,32.2,5.0,29.83,West,259,11.0,11.6,31,0.00,,---,0.00,VWS V14.01,2013-03-14 08:16:00,
2013-03-14 04:21:00,32.0,4.8,29.83,NW,319,3.1,11.6,31,0.00,,---,0.00,VWS V14.01,2013-03-14 08:21:00,
2013-03-14 04:27:00,32.0,4.1,29.83,West,273,6.9,8.7,30,0.00,,---,0.00,VWS V14.01,2013-03-14 08:27:00,
2013-03-14 04:32:00,31.8,3.9,29.83,NW,323,2.7,6.9,30,0.00,,---,0.00,VWS V14.01,2013-03-14 08:32:00,
2013-03-14 04:37:00,31.6,3.8,29.83,West,263,4.9,11.2,30,0.00,,---,0.00,VWS V14.01,2013-03-14 08:37:00,
2013-03-14 04:42:00,31.3,3.5,29.83,West,273,8.3,11.0,30,0.00,,---,0.00,VWS V14.01,2013-03-14 08:42:00,
2013-03-14 04:47:00,31.1,3.3,29.83,WNW,285,10.5,15.9,30,0.00,,---,0.00,VWS V14.01,2013-03-14 08:47:00,
2013-03-14 04:52:00,30.9,1.7,29.83,WNW,289,7.4,17.2,28,0.00,,---,0.00,VWS V14.01,2013-03-14 08:52:00,
2013-03-14 04:57:00,30.7,1.5,29.83,WNW,299,6.9,8.7,28,0.00,,---,0.00,VWS V14.01,2013-03-14 08:57:00,
2013-03-14 05:02:00,30.6,1.4,29.83,West,263,9.2,12.1,28,0.00,,---,0.00,VWS V14.01,2013-03-14 09:02:00,
2013-03-14 05:07:00,30.4,1.2,29.83,West,277,9.6,16.3,28,0.00,,---,0.00,VWS V14.01,2013-03-14 09:07:00,
2013-03-14 05:12:00,30.4,1.2,29.83,West,263,6.9,10.5,28,0.00,,---,0.00,VWS V14.01,2013-03-14 09:12:00,
2013-03-14 05:17:00,30.2,1.0,29.83,West,277,5.4,12.1,28,0.00,,---,0.00,VWS V14.01,2013-03-14 09:17:00,
2013-03-14 05:22:00,30.0,0.9,29.83,WNW,285,6.9,12.1,28,0.00,,---,0.00,VWS V14.01,2013-03-14 09:22:00,
2013-03-14 05:27:00,29.8,-1.7,29.83,SW,217,7.8,16.3,25,0.00,,---,0.00,VWS V14.01,2013-03-14 09:27:00,
2013-03-14 05:32:00,29.7,-1.8,29.83,WNW,288,12.1,14.8,25,0.00,,---,0.00,VWS V14.01,2013-03-14 09:32:00,
2013-03-14 05:37:00,29.7,-1.8,29.83,West,259,11.2,21.0,25,0.00,,---,0.00,VWS V14.01,2013-03-14 09:37:00,
2013-03-14 05:42:00,29.7,-1.8,29.83,WNW,289,6.9,12.5,25,0.00,,---,0.00,VWS V14.01,2013-03-14 09:42:00,
2013-03-14 05:47:00,29.5,-2.0,29.83,NW,311,7.8,9.6,25,0.00,,---,0.00,VWS V14.01,2013-03-14 09:47:00,
2013-03-14 05:52:00,29.3,-3.9,29.83,NNW,327,9.2,12.5,23,0.00,,---,0.00,VWS V14.01,2013-03-14 09:52:00,
2013-03-14 05:57:00,29.1,-4.1,29.83,WNW,295,8.7,18.6,23,0.00,,---,0.00,VWS V14.01,2013-03-14 09:57:00,
2013-03-14 06:02:00,28.9,-4.2,29.83,WNW,298,8.3,12.5,23,0.00,,---,0.00,VWS V14.01,2013-03-14 10:02:00,
2013-03-14 06:07:00,28.9,-4.2,29.83,WNW,292,7.8,12.5,23,0.00,,---,0.00,VWS V14.01,2013-03-14 10:07:00,
2013-03-14 06:12:00,28.8,-4.3,29.83,WNW,282,14.3,14.3,23,0.00,,---,0.00,VWS V14.01,2013-03-14 10:12:00,
2013-03-14 06:17:00,28.8,-4.3,29.83,NW,310,6.9,11.2,23,0.00,,---,0.00,VWS V14.01,2013-03-14 10:17:00,
2013-03-14 06:22:00,28.6,-4.5,29.85,West,274,7.8,18.1,23,0.00,,---,0.00,VWS V14.01,2013-03-14 10:22:00,
2013-03-14 06:27:00,28.6,-4.5,29.85,West,273,3.1,11.0,23,0.00,,---,0.00,VWS V14.01,2013-03-14 10:27:00,
2013-03-14 06:32:00,28.4,-4.7,29.85,WNW,283,11.0,12.1,23,0.00,,---,0.00,VWS V14.01,2013-03-14 10:32:00,
2013-03-14 06:37:00,28.4,-4.7,29.83,WNW,300,8.7,15.9,23,0.00,,---,0.00,VWS V14.01,2013-03-14 10:37:00,
2013-03-14 06:42:00,28.2,-4.8,29.83,WNW,294,6.7,8.3,23,0.00,,---,0.00,VWS V14.01,2013-03-14 10:42:00,
2013-03-14 06:47:00,28.2,-4.8,29.83,NW,305,5.4,9.2,23,0.00,,---,0.00,VWS V14.01,2013-03-14 10:47:00,
2013-03-14 06:52:00,28.0,-5.0,29.83,West,273,9.2,13.0,23,0.00,,---,0.00,VWS V14.01,2013-03-14 10:52:00,
2013-03-14 06:57:00,28.2,-4.8,29.83,NW,307,8.7,15.9,23,0.00,,---,0.00,VWS V14.01,2013-03-14 10:57:00,
2013-03-14 07:02:00,28.0,-5.0,29.83,WNW,301,9.2,15.4,23,0.00,,---,0.00,VWS V14.01,2013-03-14 11:02:00,
2013-03-14 07:07:00,28.0,-5.0,29.85,West,267,7.8,12.5,23,0.00,,---,0.00,VWS V14.01,2013-03-14 11:07:00,
2013-03-14 07:13:00,28.0,-5.0,29.85,West,279,2.7,10.5,23,0.00,,---,0.00,VWS V14.01,2013-03-14 11:13:00,
2013-03-14 07:18:00,28.0,-5.0,29.85,West,272,9.2,12.1,23,0.00,,---,0.00,VWS V14.01,2013-03-14 11:18:00,
2013-03-14 07:23:00,28.2,-4.8,29.85,WNW,300,2.7,14.3,23,0.00,,---,0.00,VWS V14.01,2013-03-14 11:23:00,
2013-03-14 07:28:00,28.4,-4.7,29.85,West,275,17.2,21.5,23,0.00,,---,0.00,VWS V14.01,2013-03-14 11:28:00,
2013-03-14 07:33:00,28.4,-4.7,29.85,WNW,292,7.4,14.8,23,0.00,,---,0.00,VWS V14.01,2013-03-14 11:33:00,
2013-03-14 07:38:00,29.1,-4.1,29.85,NW,319,5.8,12.1,23,0.00,,---,0.00,VWS V14.01,2013-03-14 11:38:00,
2013-03-14 07:43:00,29.3,-3.9,29.85,WNW,288,6.9,20.1,23,0.00,,---,0.00,VWS V14.01,2013-03-14 11:43:00,
2013-03-14 07:48:00,30.9,-2.5,29.85,WNW,283,5.4,16.3,23,0.00,,---,0.00,VWS V14.01,2013-03-14 11:48:00,
2013-03-14 07:53:00,32.2,-4.4,29.85,WNW,289,8.7,16.8,20,0.00,,---,0.00,VWS V14.01,2013-03-14 11:53:00,
2013-03-14 07:58:00,32.0,-4.5,29.85,West,263,12.1,23.3,20,0.00,,---,0.00,VWS V14.01,2013-03-14 11:58:00,
2013-03-14 08:03:00,31.1,-5.3,29.85,WNW,282,14.8,19.9,20,0.00,,---,0.00,VWS V14.01,2013-03-14 12:03:00,
2013-03-14 08:08:00,31.1,-5.3,29.85,West,274,20.6,20.6,20,0.00,,---,0.00,VWS V14.01,2013-03-14 12:08:00,
2013-03-14 08:13:00,30.6,-5.7,29.85,WSW,258,9.6,17.7,20,0.00,,---,0.00,VWS V14.01,2013-03-14 12:13:00,
2013-03-14 08:18:00,30.0,-6.2,29.85,WNW,295,16.3,21.0,20,0.00,,---,0.00,VWS V14.01,2013-03-14 12:18:00,
2013-03-14 08:23:00,29.3,-5.8,29.85,West,265,8.3,23.3,21,0.00,,---,0.00,VWS V14.01,2013-03-14 12:23:00,
2013-03-14 08:28:00,28.6,-6.4,29.85,WNW,284,13.9,24.8,21,0.00,,---,0.00,VWS V14.01,2013-03-14 12:28:00,
2013-03-14 08:33:00,28.0,-6.8,29.85,WNW,303,5.4,19.9,21,0.00,,---,0.00,VWS V14.01,2013-03-14 12:33:00,
2013-03-14 08:38:00,27.9,-7.0,29.88,WSW,248,17.2,21.5,21,0.00,,---,0.00,VWS V14.01,2013-03-14 12:38:00,
2013-03-14 08:43:00,28.4,-6.5,29.88,North,351,11.2,22.4,21,0.00,,---,0.00,VWS V14.01,2013-03-14 12:43:00,
2013-03-14 08:48:00,28.9,-9.2,29.88,WNW,290,4.0,27.1,18,0.00,,---,0.00,VWS V14.01,2013-03-14 12:48:00,
2013-03-14 08:53:00,28.0,-10.0,29.88,WNW,289,10.1,20.6,18,0.00,,---,0.00,VWS V14.01,2013-03-14 12:53:00,
2013-03-14 08:58:00,27.9,-10.1,29.88,NW,311,12.1,29.1,18,0.00,,---,0.00,VWS V14.01,2013-03-14 12:58:00,
2013-03-14 09:03:00,27.7,-10.3,29.88,NW,315,15.4,24.8,18,0.00,,---,0.00,VWS V14.01,2013-03-14 13:03:00,
2013-03-14 09:08:00,27.9,-10.1,29.88,West,275,11.2,23.7,18,0.00,,---,0.00,VWS V14.01,2013-03-14 13:08:00,
2013-03-14 09:13:00,28.0,-10.0,29.88,WNW,282,9.6,21.0,18,0.00,,---,0.00,VWS V14.01,2013-03-14 13:13:00,
2013-03-14 09:18:00,28.0,-10.0,29.88,North,0,4.5,15.4,18,0.00,,---,0.00,VWS V14.01,2013-03-14 13:18:00,
2013-03-14 09:23:00,27.9,-10.1,29.88,NNE,26,0.0,13.4,18,0.00,,---,0.00,VWS V14.01,2013-03-14 13:23:00,
2013-03-14 09:28:00,27.9,-10.1,29.88,WSW,258,7.8,14.3,18,0.00,,---,0.00,VWS V14.01,2013-03-14 13:28:00,
2013-03-14 09:33:00,28.4,-9.7,29.88,WNW,302,6.9,23.7,18,0.00,,---,0.00,VWS V14.01,2013-03-14 13:33:00,
2013-03-14 09:38:00,28.6,-9.5,29.88,WNW,300,8.3,14.8,18,0.00,,---,0.00,VWS V14.01,2013-03-14 13:38:00,
2013-03-14 09:43:00,28.0,-10.0,29.88,NW,310,7.4,18.6,18,0.00,,---,0.00,VWS V14.01,2013-03-14 13:43:00,
2013-03-14 09:48:00,27.9,-10.1,29.88,WSW,239,15.2,20.6,18,0.00,,---,0.00,VWS V14.01,2013-03-14 13:48:00,
2013-03-14 09:53:00,28.8,-9.4,29.88,NW,315,12.5,17.2,18,0.00,,---,0.00,VWS V14.01,2013-03-14 13:53:00,
2013-03-14 09:58:00,28.0,-10.0,29.88,WNW,299,12.1,27.1,18,0.00,,---,0.00,VWS V14.01,2013-03-14 13:58:00,
2013-03-14 10:03:00,27.7,-10.3,29.88,NE,41,4.9,19.9,18,0.00,,---,0.00,VWS V14.01,2013-03-14 14:03:00,
2013-03-14 10:08:00,28.9,-9.2,29.88,WNW,287,14.8,14.8,18,0.00,,---,0.00,VWS V14.01,2013-03-14 14:08:00,
2013-03-14 10:13:00,30.0,-8.3,29.88,West,280,3.1,13.9,18,0.00,,---,0.00,VWS V14.01,2013-03-14 14:13:00,
2013-03-14 10:18:00,30.4,-8.0,29.88,West,279,13.0,20.1,18,0.00,,---,0.00,VWS V14.01,2013-03-14 14:18:00,
2013-03-14 10:23:00,30.2,-8.2,29.88,North,351,7.8,12.1,18,0.00,,---,0.00,VWS V14.01,2013-03-14 14:23:00,
2013-03-14 10:28:00,30.7,-7.7,29.88,NW,314,4.9,23.3,18,0.00,,---,0.00,VWS V14.01,2013-03-14 14:28:00,
2013-03-14 10:33:00,31.6,-7.0,29.88,NW,317,3.6,17.7,18,0.00,,---,0.00,VWS V14.01,2013-03-14 14:33:00,
2013-03-14 10:38:00,32.2,-6.6,29.88,WNW,283,4.5,17.7,18,0.00,,---,0.00,VWS V14.01,2013-03-14 14:38:00,
2013-03-14 10:43:00,32.5,-6.2,29.88,West,272,8.3,18.1,18,0.00,,---,0.00,VWS V14.01,2013-03-14 14:43:00,
2013-03-14 10:48:00,32.9,-5.9,29.88,WNW,299,4.0,17.7,18,0.00,,---,0.00,VWS V14.01,2013-03-14 14:48:00,
2013-03-14 10:53:00,32.5,-6.2,29.88,WSW,258,10.5,17.7,18,0.00,,---,0.00,VWS V14.01,2013-03-14 14:53:00,
2013-03-14 10:58:00,32.9,-5.9,29.88,West,273,11.0,21.0,18,0.00,,---,0.00,VWS V14.01,2013-03-14 14:58:00,
2013-03-14 11:03:00,33.1,-7.0,29.88,WNW,295,12.1,22.4,17,0.00,,---,0.00,VWS V14.01,2013-03-14 15:03:00,
2013-03-14 11:08:00,32.9,-5.9,29.88,NNW,327,8.7,14.8,18,0.00,,---,0.00,VWS V14.01,2013-03-14 15:08:00,
2013-03-14 11:13:00,33.8,-6.4,29.88,NNW,335,14.8,19.5,17,0.00,,---,0.00,VWS V14.01,2013-03-14 15:13:00,
2013-03-14 11:18:00,34.0,-6.2,29.88,West,279,13.4,22.8,17,0.00,,---,0.00,VWS V14.01,2013-03-14 15:18:00,
2013-03-14 11:24:00,34.0,-6.2,29.85,NW,325,4.9,25.3,17,0.00,,---,0.00,VWS V14.01,2013-03-14 15:24:00,
2013-03-14 11:29:00,34.0,-6.2,29.85,NW,322,11.0,21.0,17,0.00,,---,0.00,VWS V14.01,2013-03-14 15:29:00,
2013-03-14 11:33:00,34.0,-6.2,29.85,WNW,302,8.3,13.0,17,0.00,,---,0.00,VWS V14.01,2013-03-14 15:33:00,
2013-03-14 11:39:00,35.2,-5.2,29.85,NW,326,7.4,15.4,17,0.00,,---,0.00,VWS V14.01,2013-03-14 15:39:00,
2013-03-14 11:44:00,35.6,-4.9,29.85,NE,43,2.7,18.1,17,0.00,,---,0.00,VWS V14.01,2013-03-14 15:44:00,
2013-03-14 11:49:00,34.3,-5.9,29.85,NW,309,4.5,15.2,17,0.00,,---,0.00,VWS V14.01,2013-03-14 15:49:00,
2013-03-14 11:54:00,35.2,-5.2,29.85,West,281,10.1,21.0,17,0.00,,---,0.00,VWS V14.01,2013-03-14 15:54:00,
2013-03-14 11:59:00,35.6,-4.9,29.85,West,266,13.4,20.1,17,0.00,,---,0.00,VWS V14.01,2013-03-14 15:59:00,
2013-03-14 12:04:00,36.1,-4.5,29.85,NW,326,6.3,19.5,17,0.00,,---,0.00,VWS V14.01,2013-03-14 16:04:00,
2013-03-14 12:09:00,36.7,-5.3,29.85,WNW,285,8.7,21.5,16,0.00,,---,0.00,VWS V14.01,2013-03-14 16:09:00,
2013-03-14 12:14:00,38.1,-4.1,29.85,NW,305,6.9,15.2,16,0.00,,---,0.00,VWS V14.01,2013-03-14 16:14:00,
2013-03-14 12:19:00,37.4,-4.7,29.85,NNW,347,3.1,21.0,16,0.00,,---,0.00,VWS V14.01,2013-03-14 16:19:00,
2013-03-14 12:24:00,35.1,-5.3,29.85,NW,312,3.6,15.2,17,0.00,,---,0.00,VWS V14.01,2013-03-14 16:24:00,
2013-03-14 12:29:00,35.2,-5.2,29.85,West,270,7.4,21.0,17,0.00,,---,0.00,VWS V14.01,2013-03-14 16:29:00,
2013-03-14 12:34:00,36.3,-4.3,29.85,West,274,6.7,17.7,17,0.00,,---,0.00,VWS V14.01,2013-03-14 16:34:00,
2013-03-14 12:39:00,36.7,-5.3,29.85,NNW,336,3.1,21.9,16,0.00,,---,0.00,VWS V14.01,2013-03-14 16:39:00,